Starlink 11325

operational
NORAD ID: 61538 Int'l Des: 2024-184 Owner: SPXS Country: US Constellation: starlink
LEOCIRCULAR

About Starlink 11325

Description loading...

Live Position

Loading 3D Globe...

Upcoming Passes

Altitude History

Altitude vs Time

uPlot chart will show altitude changes over time

Two-Line Element Set

1 61538U 24184G 25260.01802935 -.00001515 00000-0 -76531-5 0 9996
2 61538 53.1598 12.1506 0001009 80.2427 279.8705 15.69701802 53144
Epoch: Sep 17, 2025 • Age: 23 hours

Current Status

Altitude 363.4 km
Velocity 7.70 km/s
Sub-Earth Point 42.95°N, 60.14°E
Launch Date Oct 15, 2024
Age 0.9 years
Type internet

Technical Details

Classification Payload
Mass 960.00 kg
Dry Mass 910.00 kg
Total Mass 960.00 kg
Length 0.30 m
Diameter 4.10 m
Span 29.00 m
Shape Box + pan
Manufacturer SPXS
Bus Type Starlink V2MD
Phase Status In Orbit
Owner/State SPXS/US

Large Constellations

Loading constellations...